Time,TemperatureF,DewpointF,PressureIn,WindDirection,WindDirectionDegrees,WindSpeedMPH,WindSpeedGustMPH,Humidity,HourlyPrecipIn,Conditions,Clouds,dailyrainin,SoftwareType,DateUTC
2013-06-13 00:01:00,60.2,53.7,29.79,West,264,0.0,0.0,79,0.00,,,0.06,Wunderground v.1.15,2013-06-13 04:01:00,
2013-06-13 00:31:00,59.0,52.8,29.78,West,273,0.0,0.0,80,0.00,,,0.00,Wunderground v.1.15,2013-06-13 04:31:00,
2013-06-13 01:01:00,57.5,52.4,29.78,West,271,0.0,0.0,83,0.00,,,0.00,Wunderground v.1.15,2013-06-13 05:01:00,
2013-06-13 01:31:00,56.2,51.7,29.78,South,190,0.0,0.0,85,0.00,,,0.00,Wunderground v.1.15,2013-06-13 05:31:00,
2013-06-13 02:01:00,57.5,52.4,29.78,West,276,1.0,1.0,83,0.00,,,0.00,Wunderground v.1.15,2013-06-13 06:01:00,
2013-06-13 02:30:00,58.0,52.5,29.77,WSW,257,1.0,1.0,82,0.00,,,0.00,Wunderground v.1.15,2013-06-13 06:30:00,
2013-06-13 03:01:00,57.3,52.2,29.77,West,260,0.0,1.0,83,0.00,,,0.00,Wunderground v.1.15,2013-06-13 07:01:00,
2013-06-13 03:31:00,57.1,51.7,29.77,West,269,1.0,1.0,82,0.00,,,0.00,Wunderground v.1.15,2013-06-13 07:31:00,
2013-06-13 04:01:00,55.7,50.9,29.77,WSW,256,0.0,0.0,84,0.00,,,0.00,Wunderground v.1.15,2013-06-13 08:01:00,
2013-06-13 04:31:00,53.9,49.8,29.78,WSW,256,0.0,0.0,86,0.00,,,0.00,Wunderground v.1.15,2013-06-13 08:31:00,
2013-06-13 05:01:00,53.3,49.5,29.79,WSW,255,0.0,0.0,87,0.00,,,0.00,Wunderground v.1.15,2013-06-13 09:01:00,
2013-06-13 05:31:00,52.7,49.2,29.79,SSW,210,0.0,0.0,88,0.00,,,0.00,Wunderground v.1.15,2013-06-13 09:31:00,
2013-06-13 06:01:00,54.4,50.6,29.79,West,267,0.0,0.0,87,0.00,,,0.00,Wunderground v.1.15,2013-06-13 10:01:00,
2013-06-13 06:31:00,54.6,50.8,29.79,West,267,0.0,0.0,87,0.00,,,0.00,Wunderground v.1.15,2013-06-13 10:31:00,
2013-06-13 07:01:00,57.0,52.9,29.80,West,269,0.0,0.0,86,0.00,,,0.00,Wunderground v.1.15,2013-06-13 11:01:00,
2013-06-13 07:31:00,60.2,54.7,29.79,West,269,0.0,0.0,82,0.00,,,0.00,Wunderground v.1.15,2013-06-13 11:31:00,
2013-06-13 08:01:00,64.8,56.7,29.78,West,266,0.0,2.0,75,0.00,,,0.00,Wunderground v.1.15,2013-06-13 12:01:00,
2013-06-13 08:31:00,67.6,57.5,29.78,East,97,0.0,0.0,70,0.00,,,0.00,Wunderground v.1.15,2013-06-13 12:31:00,
2013-06-13 09:01:00,67.9,56.5,29.78,WSW,248,0.0,0.0,67,0.00,,,0.00,Wunderground v.1.15,2013-06-13 13:01:00,
2013-06-13 09:31:00,67.5,55.7,29.78,West,261,0.0,1.0,66,0.00,,,0.00,Wunderground v.1.15,2013-06-13 13:31:00,
2013-06-13 10:01:00,68.1,57.9,29.77,WSW,257,0.0,0.0,70,0.00,,,0.00,Wunderground v.1.15,2013-06-13 14:01:00,
2013-06-13 10:31:00,69.6,56.4,29.77,WSW,246,0.0,0.0,63,0.00,,,0.00,Wunderground v.1.15,2013-06-13 14:31:00,
2013-06-13 11:01:00,70.2,54.7,29.77,NNE,17,0.0,0.0,58,0.00,,,0.00,Wunderground v.1.15,2013-06-13 15:01:00,
2013-06-13 11:31:00,69.8,56.6,29.77,NE,34,0.0,0.0,63,0.00,,,0.00,Wunderground v.1.15,2013-06-13 15:31:00,
2013-06-13 12:01:00,67.5,57.0,29.76,NE,49,0.0,0.0,69,0.00,,,0.00,Wunderground v.1.15,2013-06-13 16:01:00,
2013-06-13 12:31:00,67.3,57.6,29.77,NE,53,0.0,0.0,71,0.00,,,0.00,Wunderground v.1.15,2013-06-13 16:31:00,
2013-06-13 13:01:00,64.7,58.4,29.78,ESE,121,0.0,1.0,80,0.00,,,0.02,Wunderground v.1.15,2013-06-13 17:01:00,
2013-06-13 13:31:00,62.7,57.1,29.75,West,273,0.0,0.0,82,0.00,,,0.04,Wunderground v.1.15,2013-06-13 17:31:00,
2013-06-13 14:01:00,61.0,56.1,29.73,West,273,0.0,0.0,84,0.11,,,0.08,Wunderground v.1.15,2013-06-13 18:01:00,
2013-06-13 14:31:00,60.2,55.7,29.72,SW,236,0.0,0.0,85,0.10,,,0.12,Wunderground v.1.15,2013-06-13 18:31:00,
2013-06-13 15:01:00,60.3,56.1,29.75,SW,236,0.0,0.0,86,0.19,,,0.18,Wunderground v.1.15,2013-06-13 19:01:00,
2013-06-13 15:31:00,59.6,55.7,29.74,ESE,118,0.0,0.0,87,0.11,,,0.26,Wunderground v.1.15,2013-06-13 19:31:00,
2013-06-13 16:01:00,58.0,53.8,29.76,NNE,21,0.0,0.0,86,0.09,,,0.30,Wunderground v.1.15,2013-06-13 20:01:00,
2013-06-13 16:31:00,58.2,54.7,29.75,SW,228,0.0,0.0,88,0.00,,,0.31,Wunderground v.1.15,2013-06-13 20:31:00,
2013-06-13 17:01:00,57.6,53.8,29.73,NNW,345,0.0,1.0,87,0.00,,,0.32,Wunderground v.1.15,2013-06-13 21:01:00,
2013-06-13 17:31:00,56.6,52.8,29.71,SE,137,1.0,1.0,87,0.00,,,0.32,Wunderground v.1.15,2013-06-13 21:31:00,
2013-06-13 18:01:00,55.9,52.1,29.71,NE,41,0.0,0.0,87,0.00,,,0.32,Wunderground v.1.15,2013-06-13 22:01:00,
2013-06-13 18:31:00,55.3,51.5,29.71,NE,40,0.0,0.0,87,0.00,,,0.32,Wunderground v.1.15,2013-06-13 22:31:00,
2013-06-13 19:01:00,55.2,51.7,29.72,NNW,335,0.0,0.0,88,0.07,,,0.36,Wunderground v.1.15,2013-06-13 23:01:00,
2013-06-13 19:31:00,55.2,51.7,29.72,NNW,336,0.0,0.0,88,0.05,,,0.38,Wunderground v.1.15,2013-06-13 23:31:00,
2013-06-13 20:01:00,55.1,51.9,29.72,NNW,335,0.0,0.0,89,0.04,,,0.40,Wunderground v.1.15,2013-06-14 00:01:00,
2013-06-13 20:31:00,55.1,51.9,29.71,West,261,0.0,1.0,89,0.04,,,0.42,Wunderground v.1.15,2013-06-14 00:31:00,
2013-06-13 21:01:00,54.2,51.0,29.70,West,262,0.0,0.0,89,0.00,,,0.43,Wunderground v.1.15,2013-06-14 01:01:00,
2013-06-13 21:31:00,54.1,51.2,29.72,SW,219,0.0,0.0,90,0.00,,,0.44,Wunderground v.1.15,2013-06-14 01:31:00,
2013-06-13 22:01:00,54.1,51.2,29.71,SSE,149,0.0,0.0,90,0.00,,,0.46,Wunderground v.1.15,2013-06-14 02:01:00,
2013-06-13 22:31:00,53.7,50.8,29.70,West,262,0.0,0.0,90,0.16,,,0.51,Wunderground v.1.15,2013-06-14 02:31:00,
2013-06-13 23:01:00,53.4,50.5,29.69,NW,308,0.0,0.0,90,0.06,,,0.54,Wunderground v.1.15,2013-06-14 03:01:00,
2013-06-13 23:31:00,53.1,50.2,29.67,SSW,194,0.0,0.0,90,0.09,,,0.60,Wunderground v.1.15,2013-06-14 03:31:00,